Vorticity
7 8 8 8 7 10 10 9 9 7 6 5 4 4 5 6 6 12 9 5 4 5 36 7 3 9 6 -4 8 4 7 9 8 0 18 3 -6 12 10 7 12 15 8 15 5
7 7 9 9 8 7 10 10 9 10 6 6 4 4 5 5 6 10 8 6 3 2 1 9 3 7 6 -0 15 3 -1 14 11 1 8 19 3 5 10 17 6 -7 10 17 4
8 7 7 9 10 8 7 10 11 10 9 7 5 5 5 6 5 9 7 6 7 3 -0 9 9 6 8 3 9 4 -3 7 10 15 -7 13 9 -6 10 11 14 15 13 9 5
8 8 7 7 8 10 9 8 10 11 11 8 6 4 5 5 3 6 8 8 6 3 -1 13 13 6 5 7 7 -1 -0 -5 7 5 9 4 13 1 7 12 14 12 11 10 0
8 8 8 8 7 8 10 9 8 10 11 10 8 6 6 5 -1 7 12 7 6 1 4 5 14 -3 5 1 5 12 10 14 2 3 6 5 6 3 14 14 14 7 9 25 17
8 9 9 9 8 8 8 10 9 8 10 10 9 7 6 5 7 5 16 5 4 4 8 6 -2 12 6 2 16 12 24 6 1 4 -2 -0 2 1 20 15 14 9 7 6 7
10 11 10 8 9 8 8 8 10 9 7 11 8 8 6 3 10 5 18 1 6 3 6 7 12 21 8 4 1 8 7 1 4 3 -2 10 5 4 11 19 13 8 12 7 9
11 13 12 9 9 8 8 9 8 8 10 8 12 9 6 4 10 6 12 3 2 5 -2 7 4 4 4 10 11 3 8 1 7 5 5 3 -4 5 1 13 16 12 7 6 7
11 13 13 10 10 10 8 9 9 8 8 10 9 10 6 3 10 7 8 4 2 -5 -3 1 6 5 8 14 5 -2 2 8 8 6 3 9 -12 5 4 2 11 19 11 7 3
10 12 12 10 10 10 9 8 9 10 9 9 11 7 13 4 6 9 6 6 3 1 -4 -2 0 4 3 -4 6 -1 5 8 26 9 1 -0 7 1 3 3 6 10 17 7 8
10 10 13 11 11 8 10 10 8 10 10 2 17 -8 23 11 1 10 7 6 6 4 -2 4 6 6 11 11 4 3 7 8 7 24 -1 8 -0 4 4 6 10 9 11 22 9
7 9 11 12 10 10 9 6 1 9 11 7 15 2 22 10 8 5 8 7 7 7 7 4 4 6 8 -2 4 5 18 20 16 17 31 15 4 -2 -0 3 18 -14 6 6 13
7 8 9 10 10 10 8 7 11 17 13 12 9 6 12 10 12 16 9 6 5 5 5 2 -8 19 7 1 0 17 13 15 5 -2 -4 16 24 31 17 19 12 12 0 -0 6
7 7 7 9 8 10 9 10 8 15 11 28 7 5 5 9 11 21 18 10 5 6 3 6 5 -5 2 4 2 15 -2 1 16 14 7 -4 -1 5 15 5 14 16 17 2 6
9 8 6 9 7 11 6 12 11 -2 4 20 21 5 4 1 13 7 18 14 9 10 8 1 15 22 4 -3 3 0 9 4 14 12 12 11 12 -1 0 18 26 18 25 16 5
9 8 9 6 6 9 3 8 10 2 17 7 18 10 3 10 7 17 9 11 11 9 7 8 12 5 18 11 -2 3 8 10 4 11 11 8 2 11 4 -1 -1 8 29 17 6
10 9 8 9 6 7 7 6 5 5 18 17 10 0 14 10 4 19 11 12 -2 15 20 11 9 -7 4 2 1 1 5 4 7 5 -2 7 24 -19 17 19 1 -0 10 30 11
13 13 10 9 10 6 6 7 5 15 2 10 -2 13 7 12 3 10 6 4 2 -8 -0 20 27 33 8 5 -8 6 5 -4 5 -2 -8 6 9 -11 -20 11 13 4 45 20 15
16 15 15 11 10 8 8 -0 18 9 9 3 14 9 9 11 10 -3 2 4 9 20 -12 12 21 10 15 32 14 15 4 -2 10 7 5 22 11 8 40 23 15 45 20 10 20
16 16 16 16 13 11 9 -8 7 9 13 9 5 10 16 7 2 -6 7 19 31 20 1 2 7 6 22 21 17 4 13 11 2 6 8 6 0 -5 25 13 -2 9 15 12 10
14 15 14 17 16 14 1 -0 7 9 3 -0 6 10 16 3 6 9 7 8 7 2 15 21 1 2 -11 1 -3 10 15 12 11 12 4 12 10 -10 -2 43 9 0 -6 7 18
11 12 12 15 12 14 9 17 7 9 6 -2 11 7 7 7 11 6 3 2 15 13 10 20 11 5 -3 -7 -1 -4 1 1 3 -1 7 19 8 2 1 11 8 6 3 -2 17
12 11 9 7 5 13 14 5 3 7 10 15 10 6 3 6 0 2 2 5 6 4 10 8 12 9 20 26 28 21 22 22 14 12 6 -5 -24 -13 -1 -40 -0 4 3 15 5
16 10 12 8 11 13 12 11 7 15 14 12 9 14 13 16 14 17 15 11 10 9 7 6 8 -8 -9 -13 -14 -11 -10 -5 0 10 12 -9 3 -6 5 12 13 15 4 6 15
9 10 9 14 12 5 3 5 15 7 10 9 14 9 3 -2 3 5 2 8 3 6 6 10 3 5 4 8 12 8 8 8 6 5 11 -0 3 6 -2 -1 15 7 8 7 18
14 11 12 8 6 7 7 10 10 10 8 8 6 6 7 8 11 11 8 -1 0 11 12 7 10 7 15 5 3 3 4 1 -0 4 3 9 6 19 19 4 4 8 9 8 13
13 12 13 13 13 14 12 11 11 13 15 15 17 19 15 10 8 7 9 9 3 6 6 5 6 18 17 6 10 23 12 11 13 5 10 13 9 6 15 21 15 9 9 4 17
Height
3151 3152 3152 3153 3154 3154 3156 3157 3158 3159 3161 3164 3167 3168 3168 3169 3170 3171 3171 3173 3175 3175 3174 3175 3176 3176 3176 3177 3178 3178 3178 3178 3179 3179 3180 3179 3180 3181 3181 3181 3182 3183 3186 3187 3187
3151 3152 3152 3153 3154 3155 3156 3157 3158 3159 3161 3163 3166 3168 3168 3170 3171 3172 3173 3174 3176 3177 3177 3177 3177 3178 3178 3179 3180 3180 3180 3180 3180 3180 3181 3181 3182 3182 3183 3182 3183 3184 3186 3188 3190
3152 3152 3153 3154 3154 3155 3156 3157 3159 3160 3161 3162 3165 3168 3168 3171 3173 3173 3174 3175 3177 3177 3177 3177 3178 3179 3180 3181 3181 3181 3182 3181 3182 3182 3183 3183 3183 3185 3184 3185 3185 3185 3186 3189 3191
3152 3152 3153 3154 3154 3155 3156 3157 3159 3160 3162 3162 3164 3167 3169 3171 3175 3174 3174 3176 3178 3178 3178 3178 3179 3181 3181 3182 3182 3183 3182 3183 3183 3184 3185 3185 3185 3186 3186 3187 3185 3185 3189 3190 3192
3152 3152 3153 3153 3154 3155 3156 3157 3158 3160 3162 3163 3164 3166 3169 3171 3173 3175 3175 3177 3179 3180 3181 3182 3182 3182 3182 3183 3184 3183 3183 3184 3185 3186 3186 3187 3187 3186 3187 3186 3186 3186 3189 3191 3193
3152 3152 3152 3153 3154 3155 3156 3157 3158 3160 3162 3163 3165 3166 3168 3172 3173 3175 3176 3178 3180 3181 3183 3184 3183 3183 3183 3183 3184 3184 3184 3185 3186 3187 3188 3188 3188 3188 3188 3187 3187 3188 3190 3192 3195
3151 3151 3151 3152 3153 3154 3156 3157 3159 3160 3161 3163 3165 3167 3169 3171 3172 3174 3177 3178 3180 3182 3183 3183 3183 3184 3184 3184 3185 3186 3187 3187 3188 3188 3189 3189 3191 3190 3189 3188 3189 3189 3191 3193 3194
3151 3150 3150 3151 3152 3154 3155 3157 3158 3159 3160 3162 3165 3166 3168 3170 3171 3174 3177 3179 3181 3183 3183 3183 3183 3184 3185 3185 3187 3187 3188 3189 3189 3189 3189 3191 3192 3191 3191 3190 3190 3190 3190 3192 3194
3150 3150 3150 3151 3152 3153 3154 3155 3157 3159 3160 3162 3164 3166 3168 3170 3171 3174 3176 3179 3181 3182 3183 3183 3185 3186 3186 3187 3189 3189 3190 3190 3190 3189 3190 3191 3191 3191 3193 3192 3192 3193 3192 3192 3194
3151 3150 3150 3150 3151 3152 3154 3155 3157 3159 3160 3161 3163 3168 3167 3169 3170 3173 3175 3177 3180 3182 3184 3185 3186 3186 3187 3188 3189 3189 3189 3188 3188 3190 3189 3190 3190 3191 3191 3192 3193 3193 3194 3193 3193
3152 3151 3150 3150 3150 3152 3153 3155 3159 3160 3159 3161 3162 3163 3164 3167 3169 3172 3175 3177 3179 3182 3183 3184 3185 3187 3188 3188 3188 3188 3186 3186 3187 3188 3189 3188 3189 3189 3190 3191 3192 3192 3193 3193 3193
3151 3151 3150 3150 3151 3152 3153 3154 3156 3158 3158 3159 3161 3163 3164 3166 3169 3170 3174 3177 3178 3180 3182 3185 3184 3186 3187 3188 3188 3186 3185 3185 3186 3186 3187 3186 3186 3187 3187 3189 3191 3192 3192 3192 3192
3151 3151 3150 3150 3150 3151 3152 3154 3154 3155 3156 3158 3160 3162 3164 3167 3168 3169 3173 3175 3177 3180 3181 3183 3184 3185 3186 3186 3187 3186 3185 3185 3187 3186 3186 3185 3182 3182 3184 3184 3186 3187 3190 3190 3191
3150 3150 3150 3149 3151 3151 3152 3153 3153 3154 3156 3158 3160 3162 3164 3165 3167 3167 3170 3175 3176 3179 3181 3182 3182 3184 3185 3186 3187 3186 3186 3186 3186 3186 3187 3186 3184 3180 3181 3182 3181 3183 3184 3187 3189
3148 3148 3148 3148 3149 3150 3152 3151 3152 3154 3156 3159 3158 3160 3162 3165 3166 3166 3168 3171 3174 3176 3180 3180 3180 3182 3184 3185 3186 3186 3185 3185 3185 3185 3186 3185 3185 3179 3179 3178 3179 3179 3180 3182 3185
3145 3146 3146 3147 3147 3149 3149 3150 3152 3156 3155 3157 3157 3158 3161 3163 3164 3165 3167 3169 3171 3173 3175 3177 3178 3179 3182 3183 3184 3184 3184 3184 3184 3184 3185 3183 3184 3176 3176 3176 3177 3177 3178 3179 3181
3141 3143 3143 3144 3146 3146 3148 3150 3153 3152 3155 3156 3156 3157 3160 3162 3163 3163 3165 3167 3170 3172 3172 3173 3175 3178 3179 3181 3182 3183 3184 3184 3184 3183 3182 3181 3181 3174 3174 3174 3173 3173 3174 3176 3178
3137 3138 3139 3141 3142 3144 3146 3150 3150 3150 3150 3152 3154 3156 3158 3160 3162 3163 3164 3166 3168 3170 3171 3172 3173 3173 3175 3177 3180 3180 3182 3183 3182 3180 3180 3180 3176 3172 3171 3171 3170 3169 3168 3170 3172
3133 3133 3135 3137 3138 3141 3144 3146 3145 3147 3149 3150 3152 3154 3156 3157 3160 3162 3163 3164 3165 3167 3170 3169 3170 3170 3171 3171 3176 3176 3178 3180 3179 3179 3180 3176 3172 3169 3167 3167 3168 3165 3166 3169 3171
3130 3130 3132 3133 3135 3138 3141 3142 3143 3144 3146 3147 3150 3151 3152 3155 3158 3159 3161 3161 3161 3164 3167 3168 3169 3169 3168 3170 3172 3173 3175 3176 3176 3176 3174 3170 3170 3167 3165 3165 3167 3167 3167 3169 3171
3128 3128 3129 3130 3133 3136 3137 3139 3140 3141 3144 3147 3147 3148 3150 3152 3154 3156 3157 3159 3159 3160 3162 3164 3167 3167 3167 3168 3170 3171 3171 3172 3173 3172 3169 3166 3165 3165 3165 3164 3166 3167 3168 3169 3169
3126 3128 3128 3129 3132 3132 3134 3136 3138 3139 3141 3143 3145 3146 3148 3150 3151 3153 3153 3155 3156 3158 3159 3161 3162 3161 3163 3164 3165 3166 3167 3168 3170 3170 3167 3165 3159 3163 3164 3164 3164 3165 3165 3166 3165
3124 3126 3127 3128 3130 3131 3132 3134 3135 3138 3139 3141 3142 3144 3146 3148 3151 3150 3150 3152 3153 3155 3156 3157 3158 3159 3159 3160 3159 3160 3161 3163 3163 3162 3161 3161 3154 3160 3162 3161 3163 3160 3161 3161 3161
3123 3123 3125 3126 3127 3129 3131 3132 3134 3135 3137 3138 3140 3141 3143 3144 3146 3146 3147 3148 3149 3151 3152 3153 3154 3155 3156 3156 3157 3158 3158 3158 3159 3158 3154 3152 3151 3155 3157 3157 3157 3158 3158 3157 3158
3120 3121 3122 3123 3125 3127 3129 3130 3131 3133 3134 3135 3137 3138 3140 3142 3142 3143 3144 3146 3146 3147 3148 3149 3149 3150 3150 3152 3151 3151 3152 3154 3152 3151 3150 3148 3148 3149 3150 3151 3152 3152 3153 3153 3153
3119 3119 3120 3121 3122 3124 3125 3126 3128 3129 3131 3132 3134 3134 3135 3137 3138 3139 3141 3141 3142 3143 3144 3144 3144 3144 3144 3146 3145 3144 3145 3145 3145 3145 3142 3143 3139 3139 3142 3144 3145 3146 3146 3148 3148
3116 3116 3118 3118 3119 3120 3121 3122 3123 3124 3125 3126 3128 3129 3130 3131 3132 3133 3134 3136 3136 3138 3139 3140 3140 3140 3138 3140 3139 3137 3138 3137 3137 3136 3135 3134 3135 3135 3135 3136 3138 3138 3140 3141 3142